Weather History for Jefferson, NC

Change the Weather History Date:

Saturday, February 16, 2013

  Actual Average Record
Temperature  
Mean Temperature 24 °F -  
Max Temperature 29 °F 46 °F 70 °F (1976)
Min Temperature 18 °F 26 °F -5 °F (1991)
Degree Days  
Heating Degree Days 42    
Moisture  
Dew Point 15 °F    
Average Humidity 66    
Maximum Humidity 77    
Minimum Humidity 47    
Precipitation  
Precipitation 0.00 in - - ()
Sea Level Pressure  
Sea Level Pressure 29.83 in    
Wind  
Wind Speed 11 mph (NW)    
Max Wind Speed 20 mph    
Max Gust Speed 38 mph    
Visibility 9 miles    
Events Snow    
Averages and records for this station are not official NWS values.
T = Trace of Precipitation, MM = Missing Value Source: NWS Daily Summary

Daily Weather History Graph

Daily Weather History Graph

Search for Another Location

Airport:

Trip Planner

Search our weather history database for the weather conditions in past years. The results will help you decide how hot, cold, wet, or windy it might be!

Date:

Astronomy

Feb. 16, 2013 Rise Set
Actual Time 7:12 AM EST 6:07 PM EST
Civil Twilight 6:45 AM EST 6:34 PM EST
Nautical Twilight 6:15 AM EST 7:04 PM EST
Astronomical Twilight 5:45 AM EST 7:34 PM EST
Moon 10:36 AM EST (2/16) No Moon Set
Length of Visible Light 11h 48m
Length of Day
10h 55m
Waxing Crescent, 39% of the Moon is Illuminated
Feb 16
Waxing Crescent
Feb 17
First Quarter
Feb 25
Full
Mar 4
Last Quarter
Mar 11
New

Hourly Weather History & Observations

Time (EST) Temp. Windchill Dew Point Humidity Pressure Visibility Wind Dir Wind Speed Gust Speed Precip Events Conditions
12:15 AM 29.8 °F 21.5 °F 22.3 °F 73% 29.93 in 10.0 mi NW 9.2 mph 19.6 mph N/A   Mostly Cloudy
12:35 AM 29.8 °F 21.5 °F 20.8 °F 69% 29.94 in 10.0 mi NW 9.2 mph - N/A   Scattered Clouds
12:55 AM 29.7 °F 19.1 °F 21.0 °F 70% 29.93 in 10.0 mi NW 13.8 mph 21.9 mph N/A   Clear
1:15 AM 29.3 °F 18.6 °F 21.0 °F 71% 29.92 in 10.0 mi NW 13.8 mph 19.6 mph N/A   Clear
1:35 AM 29.3 °F 20.2 °F 21.2 °F 72% 29.91 in 10.0 mi NW 10.4 mph 17.3 mph N/A   Scattered Clouds
1:55 AM 29.3 °F 20.8 °F 21.2 °F 72% 29.90 in 10.0 mi NW 9.2 mph 16.1 mph N/A   Scattered Clouds
2:15 AM 29.1 °F 18.9 °F 21.0 °F 72% 29.89 in 10.0 mi NW 12.7 mph 17.3 mph N/A   Scattered Clouds
2:35 AM 29.3 °F 19.1 °F 19.4 °F 67% 29.90 in 10.0 mi WNW 12.7 mph 20.7 mph N/A   Mostly Cloudy
2:55 AM 28.9 °F 17.7 °F 19.6 °F 68% 29.89 in 10.0 mi NW 15.0 mph 24.2 mph N/A   Mostly Cloudy
3:15 AM 28.8 °F 17.5 °F 19.8 °F 69% 29.88 in 10.0 mi NW 15.0 mph 20.7 mph N/A   Overcast
3:35 AM 28.4 °F 17.5 °F 19.9 °F 71% 29.87 in 10.0 mi NW 13.8 mph 20.7 mph N/A   Overcast
3:55 AM 28.4 °F 19.1 °F 19.2 °F 69% 29.87 in 10.0 mi NW 10.4 mph 19.6 mph N/A   Overcast
4:15 AM 28.0 °F 18.6 °F 18.5 °F 67% 29.86 in 10.0 mi NW 10.4 mph 18.4 mph N/A   Overcast
4:35 AM 27.9 °F 17.8 °F 18.1 °F 67% 29.86 in 10.0 mi NW 11.5 mph 18.4 mph N/A   Overcast
4:55 AM 27.9 °F 16.8 °F 17.6 °F 65% 29.86 in 10.0 mi NW 13.8 mph 18.4 mph N/A   Overcast
5:15 AM 27.9 °F 17.3 °F 17.6 °F 65% 29.86 in 10.0 mi NW 12.7 mph 16.1 mph N/A   Overcast
5:35 AM 27.5 °F 17.4 °F 18.3 °F 68% 29.86 in 10.0 mi NW 11.5 mph - N/A   Overcast
6:15 AM 27.3 °F 17.7 °F 18.7 °F 70% 29.86 in 10.0 mi NW 10.4 mph - N/A   Overcast
6:35 AM 27.3 °F 18.4 °F 18.9 °F 70% 29.86 in 10.0 mi NW 9.2 mph - N/A   Overcast
7:15 AM 27.3 °F 20.9 °F 19.4 °F 72% 29.86 in 10.0 mi NW 5.8 mph - N/A Snow Light Snow
7:35 AM 27.1 °F 20.7 °F 19.4 °F 73% 29.86 in 10.0 mi North 5.8 mph - N/A   Overcast
7:55 AM 27.3 °F 19.9 °F 19.8 °F 73% 29.85 in 10.0 mi NNW 6.9 mph - N/A   Overcast
8:15 AM 27.3 °F 19.1 °F 19.4 °F 72% 29.84 in 10.0 mi NNW 8.1 mph - N/A   Overcast
8:35 AM 27.5 °F 22.2 °F 18.9 °F 70% 29.84 in 10.0 mi NNW 4.6 mph - N/A   Mostly Cloudy
8:55 AM 27.5 °F 23.6 °F 18.7 °F 69% 29.84 in 10.0 mi NNW 3.5 mph - N/A   Overcast
9:15 AM 26.6 °F 21.2 °F 19.2 °F 74% 29.84 in 10.0 mi NNE 4.6 mph - N/A   Overcast
9:35 AM 26.4 °F 20.9 °F 19.6 °F 75% 29.84 in 10.0 mi North 4.6 mph - N/A   Overcast
9:55 AM 26.2 °F 20.7 °F 19.2 °F 75% 29.84 in 10.0 mi North 4.6 mph - N/A   Overcast
10:15 AM 26.6 °F 21.2 °F 19.2 °F 74% 29.84 in 10.0 mi North 4.6 mph - N/A   Overcast
10:35 AM 26.6 °F 22.6 °F 19.4 °F 74% 29.83 in 10.0 mi North 3.5 mph - N/A   Overcast
1:35 PM 27.9 °F 19.1 °F 15.8 °F 61% 29.78 in 10.0 mi NW 9.2 mph 16.1 mph N/A   Overcast
1:55 PM 27.1 °F 18.2 °F 16.9 °F 65% 29.78 in 10.0 mi NW 9.2 mph 16.1 mph N/A   Overcast
2:15 PM 26.6 °F 15.7 °F 16.0 °F 64% 29.78 in 10.0 mi NNW 12.7 mph 18.4 mph N/A   Overcast
2:35 PM 25.7 °F 14.0 °F 16.3 °F 68% 29.77 in 3.0 mi NW 13.8 mph 24.2 mph N/A Snow Light Snow
2:55 PM 25.7 °F 13.5 °F 15.4 °F 65% 29.77 in 7.0 mi NNW 15.0 mph 24.2 mph N/A Snow Light Snow
3:15 PM 27.3 °F 17.1 °F 13.5 °F 56% 29.76 in 10.0 mi NNW 11.5 mph 20.7 mph N/A   Overcast
3:35 PM 26.1 °F 12.3 °F 13.3 °F 59% 29.75 in 10.0 mi NNW 19.6 mph 23.0 mph N/A Snow Light Snow
3:55 PM 25.9 °F 13.8 °F 10.9 °F 53% 29.76 in 10.0 mi NW 15.0 mph 26.5 mph N/A   Overcast
4:15 PM 25.5 °F 12.4 °F 9.5 °F 51% 29.76 in 10.0 mi NW 17.3 mph 27.6 mph N/A   Overcast
4:35 PM 24.4 °F 10.6 °F 7.9 °F 49% 29.77 in 10.0 mi NW 18.4 mph 27.6 mph N/A   Mostly Cloudy
4:55 PM 24.6 °F 12.7 °F 6.8 °F 47% 29.77 in 10.0 mi NW 13.8 mph 26.5 mph N/A   Scattered Clouds
5:15 PM 24.4 °F 13.0 °F 7.9 °F 49% 29.77 in 10.0 mi NW 12.7 mph 33.4 mph N/A   Scattered Clouds
5:35 PM 23.7 °F 10.1 °F 9.5 °F 55% 29.77 in 10.0 mi NNW 17.3 mph 27.6 mph N/A   Mostly Cloudy
5:55 PM 23.5 °F 9.9 °F 8.8 °F 53% 29.78 in 10.0 mi NW 17.3 mph 25.3 mph N/A   Mostly Cloudy
6:15 PM 23.0 °F 10.1 °F 8.6 °F 54% 29.79 in 10.0 mi NW 15.0 mph 20.7 mph N/A   Mostly Cloudy
6:35 PM 22.5 °F 11.1 °F 8.8 °F 56% 29.79 in 10.0 mi NW 11.5 mph 20.7 mph N/A   Mostly Cloudy
6:55 PM 21.9 °F 8.7 °F 8.8 °F 57% 29.79 in 10.0 mi NW 15.0 mph 26.5 mph N/A   Mostly Cloudy
7:15 PM 21.7 °F 8.5 °F 9.3 °F 59% 29.80 in 10.0 mi NW 15.0 mph 26.5 mph N/A   Mostly Cloudy
7:35 PM 21.4 °F 8.0 °F 12.2 °F 68% 29.80 in 3.0 mi NNW 15.0 mph 24.2 mph N/A Snow Light Snow
7:55 PM 20.3 °F 7.2 °F 12.2 °F 71% 29.81 in 4.0 mi NNW 13.8 mph 21.9 mph N/A Snow Light Snow
8:15 PM 20.3 °F 7.7 °F 11.7 °F 69% 29.82 in 10.0 mi NNW 12.7 mph 19.6 mph N/A   Overcast
8:35 PM 20.3 °F 5.2 °F 11.3 °F 68% 29.81 in 10.0 mi NW 18.4 mph 24.2 mph N/A Snow Light Snow
8:55 PM 20.3 °F 8.3 °F 11.1 °F 68% 29.82 in 10.0 mi NNW 11.5 mph 25.3 mph N/A Snow Light Snow
9:15 PM 20.7 °F 7.6 °F 9.5 °F 62% 29.82 in 10.0 mi NNW 13.8 mph 24.2 mph N/A   Overcast
9:35 PM 20.7 °F 13.0 °F 10.2 °F 64% 29.82 in 7.0 mi NW 5.8 mph 19.6 mph N/A Snow Light Snow
9:55 PM 19.6 °F 8.9 °F 13.5 °F 77% 29.83 in 1.8 mi NNW 9.2 mph 16.1 mph N/A Snow Light Snow
10:15 PM 18.9 °F 5.3 °F 12.2 °F 75% 29.83 in 1.5 mi NW 13.8 mph 27.6 mph N/A Snow Light Snow
10:35 PM 19.2 °F 6.4 °F 10.2 °F 68% 29.83 in 7.0 mi NW 12.7 mph 24.2 mph N/A Snow Light Snow
10:55 PM 19.2 °F 8.4 °F 9.5 °F 66% 29.83 in 5.0 mi WNW 9.2 mph 16.1 mph N/A Snow Light Snow
11:15 PM 19.0 °F 4.5 °F 6.3 °F 58% 29.82 in 4.0 mi NW 16.1 mph 29.9 mph N/A Snow Light Snow
11:35 PM 18.9 °F 2.9 °F 4.6 °F 54% 29.82 in 7.0 mi NW 19.6 mph 38.0 mph N/A   Overcast
11:55 PM 18.1 °F 2.9 °F 8.4 °F 66% 29.83 in 1.5 mi WNW 17.3 mph 33.4 mph N/A Snow Light Snow